Location: Degersen
(52.2871°N, 9.5716°E)
Time: 07:19:13
(UTC+00:00)

Cosmos 2181 Rocket - Pass Details

Date: 20 January 2026
Orbit: 952 x 1013 km, 82.9° (Epoch: 18 February)

Event Time Altitude Azimuth Distance (km) Brightness Sun altitude
Rises 03:54:56 0° 349° (NNW) 3,727 7.0 -30.6°
Reaches altitude 10° 03:57:27 10° 349° (N) 2,781 6.3 -30.3°
Enters shadow 03:58:04 13° 349° (N) 2,557 6.1 -30.2°
Exits shadow 04:03:05 71° 338° (NNW) 1,068 4.0 -29.4°
Maximum altitude 04:03:52 85° 262° (W) 1,019 3.9 -29.3°
Drops below altitude 10° 04:10:18 10° 175° (S) 2,788 6.4 -28.3°
Sets 04:12:50 0° 174° (S) 3,736 7.1 -27.9°
